Weather History for Oklahoma City Wiley Post, OK

Change the Weather History Date:

Saturday, January 19, 2013

  Actual Average Record
Temperature  
Mean Temperature 50 °F -  
Max Temperature 62 °F 42 °F 73 °F (2014)
Min Temperature 39 °F 24 °F 2 °F (1963)
Degree Days  
Heating Degree Days 14    
Moisture  
Dew Point 30 °F    
Average Humidity 49    
Maximum Humidity 68    
Minimum Humidity 32    
Precipitation  
Precipitation 0.00 in - - ()
Sea Level Pressure  
Sea Level Pressure 30.15 in    
Wind  
Wind Speed 13 mph (SSW)    
Max Wind Speed 20 mph    
Max Gust Speed -    
Visibility 10 miles    
Events      
Averages and records for this station are not official NWS values.
T = Trace of Precipitation, MM = Missing Value Source: NWS Daily Summary

Daily Weather History Graph

Daily Weather History Graph

Search for Another Location

Airport:

Trip Planner

Search our weather history database for the weather conditions in past years. The results will help you decide how hot, cold, wet, or windy it might be!

Date:

Astronomy

Jan. 19, 2013 Rise Set
Actual Time 7:37 AM CST 5:45 PM CST
Civil Twilight 7:10 AM CST 6:12 PM CST
Nautical Twilight 6:39 AM CST 6:43 PM CST
Astronomical Twilight 6:08 AM CST 7:14 PM CST
Moon 12:09 PM CST (1/19) 1:16 AM CST (1/19)
Length of Visible Light 11h 02m
Length of Day
10h 07m
First Quarter, 57% of the Moon is Illuminated
Jan 19
First Quarter
Jan 26
Full
Feb 3
Last Quarter
Feb 10
New
Feb 17
First Quarter

Hourly Weather History & Observations

Time (CST) Temp. Windchill Dew Point Humidity Pressure Visibility Wind Dir Wind Speed Gust Speed Precip Events Conditions
12:53 AM 46.9 °F - 28.9 °F 50% 30.16 in 10.0 mi South 16.1 mph - N/A   Clear
1:53 AM 46.0 °F 38.5 °F 28.9 °F 51% 30.15 in 10.0 mi South 19.6 mph - N/A   Clear
2:53 AM 45.0 °F 37.4 °F 28.9 °F 53% 30.14 in 10.0 mi South 18.4 mph - N/A   Clear
3:53 AM 45.0 °F 37.4 °F 28.9 °F 53% 30.12 in 10.0 mi South 18.4 mph - N/A   Clear
4:53 AM 44.1 °F 36.5 °F 28.9 °F 55% 30.12 in 10.0 mi South 17.3 mph - N/A   Clear
5:53 AM 43.0 °F 35.4 °F 28.9 °F 58% 30.11 in 10.0 mi SSW 16.1 mph - N/A   Clear
6:53 AM 43.0 °F 35.4 °F 28.9 °F 58% 30.11 in 10.0 mi SSW 16.1 mph - N/A   Clear
7:53 AM 41.0 °F 33.9 °F 28.9 °F 62% 30.12 in 10.0 mi SSW 12.7 mph - N/A   Clear
8:53 AM 45.0 °F 38.5 °F 30.0 °F 56% 30.14 in 10.0 mi SSW 13.8 mph - N/A   Clear
9:53 AM 48.9 °F - 30.0 °F 48% 30.16 in 10.0 mi SSW 15.0 mph - N/A   Clear
10:53 AM 53.1 °F - 30.9 °F 43% 30.17 in 10.0 mi SW 12.7 mph - N/A   Clear
11:53 AM 55.0 °F - 32.0 °F 42% 30.14 in 10.0 mi SW 13.8 mph - N/A   Clear
12:53 PM 59.0 °F - 32.0 °F 36% 30.10 in 10.0 mi SW 9.2 mph - N/A   Clear
1:53 PM 61.0 °F - 32.0 °F 34% 30.10 in 10.0 mi SW 9.2 mph - N/A   Clear
2:53 PM 62.1 °F - 32.0 °F 32% 30.09 in 10.0 mi SSW 10.4 mph - N/A   Clear
3:53 PM 62.1 °F - 32.0 °F 32% 30.09 in 10.0 mi SSW 6.9 mph - N/A   Clear
4:53 PM 61.0 °F - 33.1 °F 35% 30.12 in 10.0 mi SSW 4.6 mph - N/A   Clear
5:53 PM 53.1 °F - 32.0 °F 45% 30.14 in 10.0 mi SW 3.5 mph - N/A   Clear
6:53 PM 48.9 °F - 32.0 °F 52% 30.17 in 10.0 mi Calm Calm - N/A   Clear
7:53 PM 44.1 °F - 30.9 °F 60% 30.20 in 10.0 mi Calm Calm - N/A   Clear
8:53 PM 41.0 °F - 30.0 °F 65% 30.22 in 10.0 mi Calm Calm - N/A   Clear
9:53 PM 39.9 °F 35.8 °F 30.0 °F 68% 30.22 in 10.0 mi NNW 5.8 mph - N/A   Clear
10:53 PM 44.1 °F 40.8 °F 26.1 °F 49% 30.23 in 10.0 mi North 5.8 mph - N/A   Clear
11:53 PM 43.0 °F 38.8 °F 25.0 °F 49% 30.22 in 10.0 mi North 6.9 mph - N/A   Clear